Regional Weather Roundup
Issued by NWS Upton, NY

Current Version | Previous Version | Graphics & Text | Print | Product List | Glossary Off
Versions: 1 2 3 4 5 6 7 8 9 10 11 12 13 14 15 16 17 18 19 20 21 22 23 24 25 26 27 28 29 30 31 32 33 34 35 36 37 38 39 40 41 42 43 44 45 46 47 48 49 50

000
ASUS41 KOKX 272105
RWROKX

REGIONAL WEATHER ROUNDUP
NATIONAL WEATHER SERVICE NEW YORK NY
400 PM EST TUE JAN 27 2015

NOTE: "FAIR" INDICATES FEW OR NO CLOUDS BELOW 12,000 FEET WITH NO
SIGNIFICANT WEATHER AND/OR OBSTRUCTIONS TO VISIBILITY.

NYZ071-072-176-178-NJZ106-104-272200-
NEW YORK CITY METRO AREA


CITY           SKY/WX    TMP DP  RH WIND       PRES   REMARKS
CENTRAL PARK   PTSUNNY   30  17  58 VRB7      29.67S WCI  23
LAGUARDIA APRT PTSUNNY   26  17  68 N15       29.66R WCI  14
KENNEDY INTL   CLOUDY    26  16  65 N18       29.66S WCI  13
NEWARK/LIBERTY CLOUDY    28  18  66 NW14      29.67R WCI  17
BRNX BOT. GARD   N/A    N/A N/A N/A NE1       29.66F
TETERBORO      PTSUNNY   29  15  56 N10G21    29.66S WCI  20
$$

NYZ177-179-078>081-272200-
LONG ISLAND NEW YORK

CITY           SKY/WX    TMP DP  RH WIND       PRES   REMARKS
FARMINGDALE    MOCLDY    24  13  62 N17G32    29.63S BLWGSNOWWCI  11
ISLIP          CLOUDY    23  13  65 NW29      29.60R WCI   6
SHIRLEY        MIX PCPN  23  12  62 NW15G23   29.62R WCI  10
WESTHAMPTON    LGT SNOW  22  13  68 NW21G30   29.60R WCI   6
MONTAUK POINT    N/A     23  18  81 NW18G29   29.55R WCI   9
$$

NYZ052-065-067-272200-
HUDSON VALLEY

CITY           SKY/WX    TMP DP  RH WIND       PRES   REMARKS
WHITE PLAINS   CLOUDY    22  13  68 N20G29    29.64R WCI   7
NEWBURGH       CLOUDY    23  18  80 N12       29.68  WCI  12
MONTGOMERY     MOCLDY    24  16  71 NE6       29.67R WCI  17
POUGHKEEPSIE   CLOUDY    22  12  65 N9G23     29.70S WCI  12
ALBANY         LGT SNOW  12   5  73 N12       29.82R WCI  -2
$$

NJZ001-105-106-008-010-013-015-019>022-104-272200-
NEW JERSEY

CITY           SKY/WX    TMP DP  RH WIND       PRES   REMARKS
NEWARK/LIBERTY CLOUDY    28  18  66 NW14      29.67R WCI  17
TETERBORO      PTSUNNY   29  15  56 N10G21    29.66S WCI  20
CALDWELL       PTSUNNY   27  15  61 NW13G22   29.67S WCI  16
MORRISTOWN     PTSUNNY   27  18  69 N17G28    29.68S WCI  14
SOMERVILLE     CLOUDY    29  17  61 NW13G24   29.67S WCI  19
SUSSEX         PTSUNNY   24  14  65 VRB5G17   29.68S WCI  18
ANDOVER          N/A     25  14  63 VRB3      29.68S
TRENTON        CLOUDY    30  16  56 NW10G21   29.67S WCI  21
MILLVILLE      MOSUNNY   33  13  43 NW10G21   29.70R WCI  25
ATLANTIC CITY  PTSUNNY   32  15  49 NW20      29.68R WCI  20
WRIGHTSTOWN    NOT AVBL
TOMS RIVER     CLOUDY    28  18  64 NW9       29.67R WCI  20
BELMAR         CLOUDY    28  16  59 NW12      29.65S WCI  18
$$

PAZ047>061-062-071-272200-
EASTERN PENNSYLVANIA

CITY           SKY/WX    TMP DP  RH WIND       PRES   REMARKS
PHILADELPHIA   PTSUNNY   34  11  38 NW22      29.72R WCI  22
ALLENTOWN      PTSUNNY   29   7  39 NW15      29.71S WCI  18
SCRANTON       MOSUNNY   21   6  52 NW18G24   29.77R WCI   6
$$

CTZ002-004>006-009-010-012-RIZ004-006-007-MAZ004-011-015-272200-
SOUTHERN NEW ENGLAND
 IN CT

CITY           SKY/WX    TMP DP  RH WIND       PRES   REMARKS
BRADLEY INTL   CLOUDY    22   8  55 NW15G25   29.59R WCI   9
HARTFORD       CLOUDY    23   9  55 NW15G25   29.61R WCI  10
DANBURY        CLOUDY    20   7  57 N20G30    29.65S WCI   4
WTRBRY/OXFORD  PTCLDY    18   3  53 NW12G20   29.59S WCI   5
BRIDGEPORT     MIX PCPN  21  11  65 NW20G30   29.62S WCI   6
MERIDEN        CLOUDY    20   7  57 NW18G30   29.61R WCI   5
NEW HAVEN      CLOUDY    22   9  57 NW15      29.61R WCI   9
CHESTER        FAIR      23  10  58 NW18      29.56R WCI   9
GROTON         LGT SNOW  20  17  88 NW15G26   29.54S VSB 1   WCI   6
WILLIMANTIC    SNOW      20  15  81 N13       29.57R VSB 1/2 WCI   7

 IN RI

CITY           SKY/WX    TMP DP  RH WIND       PRES   REMARKS
PROVIDENCE     LGT SNOW  20  13  74 N21G37    29.51S BLWGSNOWWCI   4
BLOCK ISLAND   CLOUDY    21  12  68 NW20G28   29.49R WCI   6
WESTERLY       LGT SNOW  21  13  71 NW18G31   29.53R WCI   6

 IN MA

CITY           SKY/WX    TMP DP  RH WIND       PRES   REMARKS
BOSTON         LGT SNOW  18  12  77 N25G37    29.51S VSB 1   WCI   0
WORCESTER      LGT SNOW  14   9  80 NW20G29   29.48S WCI  -3
WESTFIELD      CLOUDY    21   8  57 N24G36    29.60R WCI   4
PROVINCETOWN     N/A    N/A N/A N/A MISG        N/A
NANTUCKET      HVY SNOW  24  23  96 N46G63    29.29R VSB 1/4 WCI   4
$$

ANZ330-335-338-340-345-350-353-355-272200-
COASTAL MARINE OBSERVATIONS


STATION/POSITION TIME  SKY/WX   TEMP    WIND        PRES    VSBY  WAVE
                                AIR SEA DIR/SP/G                  HT/PER
                 (UTC)          (F)     (DEG/KT/KT) (MB)    (MI)  (FT/S)
NY HARB ENTRANCE 2100            29 40  340/ 19/ 23 1003.2          7/13
4S FIRE IS       2100               38                N/A           7/12
20S FIRE ISLAND  2000               43              1001.8         10/12
23SW MTP         2100                                 N/A          10/12
HUDSON CANYON    NOT AVBL
EXECUTION ROCKS  2100            26 34  340/ 17/ 27   N/A
WESTERN LI SOUND 2100            26     340/ 21/ 29   N/A           2/ 3
CENTRAL LI SOUND 2000            24 36  330/ 21/ 25   N/A           3/ 4
EASTERN LI SOUND NOT AVBL
ROBBINS REEF     2100            28     340/ 15/ 21 1003.1
$$


>>>>>>>>>>>>>>>>>>>>>>>>>>>> KEY <<<<<<<<<<<<<<<<<<<<<<<<<<<
>                                                          <
>     SKY/WX - SKY CONDITION/PRESENT WEATHER               <
>     TMP    - TEMPERATURE IN FAHRENHEIT                   <
>     DP     - DEWPOINT IN FAHRENHEIT                      <
>     RH     - RELATIVE HUMIDITY IN PERCENT                <
>     WIND   - DIRECTION AND SPEED IN MPH                  <
>     PRES   - MEAN SEA LEVEL PRESSURE IN INCHES OF HG     <
>     WCI    - WIND CHILL INDEX                            <
>     VSB    - VISIBILITY IN MILES                         <
>     HX     - HEAT INDEX                                  <
>     TC     - TEMPERATURE IN CELSIUS                      <
>     VRB    - VARIABLE WIND DIRECTION                     <
>                                                          <
>>>>>>>>>>>>>>>>>>>>>>>>>>>> KEY <<<<<<<<<<<<<<<<<<<<<<<<<<<





USA.gov is the U.S. government's official web portal to all federal, state and local government web resources and services.